Hourly Data Report for August 06, 2015

All times are specified in Local Standard Time (LST). Add 1 hour to adjust for Daylight Saving Time where and when it is observed.

TORONTO INTL A
ONTARIO

43°40'36.000" N
79°37'50.000" W
173.40 m
6158731
71624
YYZ

Download Data

Hourly Data (August 2015)
Hourly Data Report for August 6, 2015
Temp Definition
°C
Dew Point Temp Definition
°C
Rel Hum Definition
%
Wind Dir Definition
10's deg

Wind Spd Definition
km/h
Visibility Definition
km
Stn Press Definition
kPa
Hmdx Definition


Wind Chill Definition


Weather Definition


TIME
00:00 Legend Double Dagger 14.8 10.1 73 31 6 24.1 99.63     LegendNANA
01:00 Legend Double Dagger 14.2 9.9 75 29 10 24.1 99.61     Clear
02:00 Legend Double Dagger 14.1 10.2 77 29 10 24.1 99.60     LegendNANA
03:00 Legend Double Dagger 14.0 10.3 78 32 14 24.1 99.56     LegendNANA
04:00 Legend Double Dagger 13.9 10.2 78 32 13 24.1 99.52     Clear
05:00 Legend Double Dagger 14.1 10.2 77 33 9 24.1 99.55     LegendNANA
06:00 Legend Double Dagger 14.4 10.5 77 31 10 24.1 99.60     LegendNANA
07:00 Legend Double Dagger 17.2 11.8 70 31 10 24.1 99.63     Mainly Clear
08:00 Legend Double Dagger 19.0 12.8 67 35 12 24.1 99.63     LegendNANA
09:00 Legend Double Dagger 20.9 13.2 61 33 12 24.1 99.64     LegendNANA
10:00 Legend Double Dagger 21.8 11.9 53 33 9 24.1 99.63     Mostly Cloudy
11:00 Legend Double Dagger 22.5 11.7 50 35 8 24.1 99.58 25   LegendNANA
12:00 Legend Double Dagger 23.2 11.8 48 34 10 24.1 99.53 25   LegendNANA
13:00 Legend Double Dagger 22.3 12.4 53 13 8 24.1 99.51 25   Mostly Cloudy
14:00 Legend Double Dagger 22.8 11.1 47 1 16 24.1 99.48 25   LegendNANA
15:00 Legend Double Dagger 22.7 12.2 51 15 7 24.1 99.45 25   LegendNANA
16:00 Legend Double Dagger 23.3 10.9 45 35 3 24.1 99.43 25   Mostly Cloudy
17:00 Legend Double Dagger 22.6 11.8 50 14 7 24.1 99.42 25   LegendNANA
18:00 Legend Double Dagger 22.3 12.1 52 14 13 24.1 99.39 25   LegendNANA
19:00
20:00 Legend Double Dagger 20.0 11.3 57 16 5 24.1 99.40     LegendNANA
21:00 Legend Double Dagger 19.1 11.3 60 36 1 24.1 99.44     LegendNANA
22:00 Legend Double Dagger 18.3 11.9 66 36 12 24.1 99.44     Clear
23:00 Legend Double Dagger 17.6 11.7 68 36 13 24.1 99.43     LegendNANA

Notes on Data Quality.

Legend

  • E = Estimated
  • M = Missing
  • NA = Not Available
  • ‡ = Partner data that is not subject to review by the National Climate Archives
Date modified: